Date,TemperatureHighF,TemperatureAvgF,TemperatureLowF,DewpointHighF,DewpointAvgF,DewpointLowF,HumidityHigh,HumidityAvg,HumidityLow,PressureMaxIn,PressureMinIn,WindSpeedMaxMPH,WindSpeedAvgMPH,GustSpeedMaxMPH,PrecipitationSumIn
2013-1-31,15,14,12,14,12,11,94,93,93,29.86,29.55,0,0,0,0.00
2013-2-1,16,3,-1,15,1,-4,94,90,89,30.41,29.83,0,0,0,0.00
2013-2-2,20,12,1,18,10,-2,94,92,90,30.43,30.07,0,0,0,0.00
2013-2-3,17,14,9,16,13,7,94,93,92,30.07,29.85,0,0,0,0.00
2013-2-4,27,18,7,25,15,6,94,90,85,30.14,29.99,0,0,0,0.00
2013-2-5,29,28,27,25,24,23,87,84,80,29.98,29.86,0,0,0,0.00
2013-2-6,28,24,21,26,22,20,94,92,85,30.33,29.93,0,0,0,0.00
2013-2-7,32,27,24,31,25,22,94,91,82,30.35,30.09,0,0,0,0.01
2013-2-8,32,26,17,26,22,15,94,86,75,30.09,29.82,0,0,0,0.01
2013-2-9,32,18,11,25,16,9,95,92,76,30.47,30.09,0,0,0,0.00
2013-2-10,42,31,24,26,18,13,94,60,33,30.46,30.11,0,0,0,0.01
2013-2-11,48,39,29,42,28,17,92,65,39,30.10,29.83,0,0,0,0.00
2013-2-12,40,30,22,24,19,12,91,67,40,30.04,29.88,0,0,0,0.00
2013-2-13,36,30,22,25,12,-14,92,59,11,29.98,29.56,0,0,0,0.00
2013-2-14,31,25,17,29,22,15,93,90,81,30.06,29.79,19,4,0,0.05
2013-2-15,37,28,21,31,26,19,93,90,76,30.07,29.95,15,8,0,0.00
2013-2-16,21,15,10,19,13,8,93,93,92,29.97,29.89,20,6,0,0.00
2013-2-17,9,4,-2,7,1,-4,92,90,89,30.33,29.91,34,15,0,0.00
2013-2-18,39,24,4,25,14,0,91,69,54,30.50,30.16,21,8,0,0.00
2013-2-19,31,26,17,30,23,12,97,88,74,30.15,29.73,34,11,0,0.00
2013-2-20,17,12,8,14,10,6,93,91,86,30.22,29.88,24,9,0,0.00
2013-2-21,29,17,4,22,12,2,93,82,63,30.39,30.20,21,8,0,0.25
2013-2-22,34,27,19,31,22,13,97,81,62,30.38,30.11,19,7,0,0.03
2013-2-23,47,38,31,37,32,26,93,78,53,30.11,29.77,16,8,0,0.02
2013-2-24,33,26,17,28,21,15,93,83,62,30.08,29.78,20,7,0,0.00
2013-2-25,39,25,13,21,16,9,93,73,41,30.19,30.08,15,4,0,0.00
2013-2-26,34,27,20,31,22,17,97,84,71,30.14,29.64,25,4,0,0.02
2013-2-27,34,28,24,25,23,21,91,83,71,29.72,29.60,0,0,0,0.04
2013-2-28,23,20,19,21,19,17,93,93,91,29.83,29.65,0,0,0,0.00
2013-3-1,22,19,15,20,18,14,94,93,92,29.94,29.83,0,0,0,0.00
2013-3-2,17,14,12,16,13,11,94,93,93,29.98,29.90,0,0,0,0.00
2013-3-3,14,11,9,13,10,7,93,93,92,30.05,29.94,0,0,0,0.00
2013-3-4,28,15,7,26,13,5,94,92,87,30.21,30.04,0,0,0,0.00
2013-3-5,34,30,17,26,23,16,94,77,71,30.19,29.60,0,0,0,0.01
2013-3-6,25,21,18,22,19,16,95,92,88,30.13,29.59,3,0,0,0.00
2013-3-7,24,22,20,22,20,19,93,92,91,30.27,30.12,0,0,0,0.00
2013-3-8,22,20,17,21,18,15,94,93,92,30.46,30.23,0,0,0,0.00
2013-3-9,40,31,22,35,24,21,92,76,55,30.46,30.34,7,1,0,0.02
2013-3-10,50,41,35,31,27,24,67,59,43,30.33,30.14,18,8,0,0.00
2013-3-11,43,40,38,37,32,28,91,74,62,30.14,29.83,22,11,0,0.18
2013-3-12,44,31,22,34,25,20,91,79,68,29.98,29.75,16,3,0,0.42
2013-3-13,24,19,13,22,18,11,93,92,89,30.11,29.94,0,0,0,0.00
2013-3-14,24,15,10,20,12,8,93,88,71,30.29,30.11,22,3,0,0.00
2013-3-15,41,30,19,32,23,12,88,77,67,30.23,29.92,29,14,0,0.00
2013-3-16,47,40,34,40,33,27,92,77,66,29.91,29.68,27,14,0,0.30
2013-3-17,36,31,29,31,25,23,92,77,71,30.11,29.84,19,7,0,0.01
2013-3-18,39,28,23,31,23,20,96,82,70,30.11,29.88,16,5,0,0.06
2013-3-19,40,31,22,31,18,2,92,61,33,29.94,29.78,41,15,0,0.34
2013-3-20,31,23,16,20,12,5,91,63,45,30.02,29.83,28,11,0,0.02
2013-3-21,17,9,4,15,7,2,92,91,86,30.04,29.75,20,9,0,0.00
2013-3-22,28,16,8,18,11,6,92,80,58,30.13,30.03,22,10,0,0.18
2013-3-23,37,26,19,17,13,11,74,59,40,30.12,30.01,16,8,0,0.00
2013-3-24,27,25,22,21,18,13,90,77,56,29.99,29.49,22,11,0,0.00
2013-3-25,23,21,19,21,19,17,94,91,88,29.77,29.49,24,6,0,0.00
2013-3-26,24,22,20,21,19,18,92,90,88,30.14,29.77,14,6,0,0.00
2013-3-27,22,20,19,20,18,17,94,92,90,30.26,30.10,20,7,0,0.00
2013-3-28,25,22,19,23,20,17,95,91,88,30.35,30.21,16,8,0,0.00
2013-3-29,31,27,24,29,24,21,92,86,75,30.36,30.27,15,7,0,0.01
2013-3-30,45,35,27,29,25,22,90,68,40,30.28,30.09,12,5,0,0.00
2013-3-31,40,38,33,32,28,25,91,69,58,30.09,29.75,18,9,0,0.36
2013-4-1,35,30,22,32,24,16,92,77,68,29.99,29.79,21,11,0,0.02
2013-4-2,31,22,16,16,12,7,86,68,41,30.23,29.98,21,9,0,0.00
2013-4-3,33,24,16,12,10,6,80,58,34,30.39,30.23,22,9,0,0.00
2013-4-4,34,28,19,26,13,0,86,54,28,30.40,30.07,15,5,0,0.02
2013-4-5,46,36,29,32,26,22,92,66,46,30.07,29.97,15,6,0,0.17
2013-4-6,53,40,27,27,12,-16,72,38,11,30.24,30.07,13,4,0,0.00
2013-4-7,59,48,36,38,33,21,73,57,45,30.17,30.02,27,10,0,0.00
2013-4-8,64,55,47,44,40,34,69,60,46,30.06,29.96,15,8,0,0.00
2013-4-9,70,59,51,51,47,42,87,66,49,30.10,29.97,26,10,0,0.00
2013-4-10,75,63,54,53,48,40,85,60,38,29.98,29.83,22,11,0,0.00
2013-4-11,71,63,56,53,48,34,82,61,26,29.83,29.59,13,5,0,0.00
2013-4-12,56,50,35,52,41,30,90,72,50,29.73,29.47,22,12,0,0.94
2013-4-13,51,40,31,31,27,20,91,63,34,30.01,29.73,34,14,0,0.00
2013-4-14,62,49,36,36,31,25,78,53,30,30.12,30.01,20,8,0,0.00
2013-4-15,52,43,40,41,33,30,89,67,51,30.21,30.00,19,8,0,0.49
2013-4-16,69,55,45,55,44,35,91,69,50,30.29,30.13,15,7,0,0.21
2013-4-17,66,58,52,55,51,42,90,78,60,30.18,30.05,14,6,0,0.08
2013-4-18,59,55,53,55,48,41,90,78,64,30.07,29.88,18,7,0,0.01
2013-4-19,55,47,31,51,39,27,91,73,65,29.87,29.58,25,11,0,0.84
2013-4-20,42,31,24,27,23,19,93,73,46,30.38,29.75,27,12,0,0.00
2013-4-21,49,36,25,28,23,19,82,62,35,30.52,30.38,13,3,0,0.00
2013-4-22,48,36,27,27,24,17,84,63,30,30.46,30.33,14,8,0,0.00
2013-4-23,63,47,31,40,32,26,91,61,25,30.31,30.05,15,6,0,0.00
2013-4-24,65,50,32,50,42,25,91,77,50,30.05,29.80,28,10,0,0.10
2013-4-25,50,36,25,38,23,10,92,65,21,30.38,29.98,20,8,0,0.00
2013-4-26,55,43,32,32,26,22,88,56,30,30.44,30.35,14,6,0,0.00
2013-4-27,61,50,42,41,32,25,88,53,29,30.38,30.18,11,4,0,0.00
2013-4-28,44,42,40,40,34,31,92,75,69,30.17,30.03,18,9,0,0.40
2013-4-29,60,47,41,51,39,32,90,73,65,30.06,29.98,11,5,0,0.06
2013-4-30,64,51,46,50,42,35,91,72,55,30.17,30.01,14,4,0,0.01
2013-5-1,57,49,44,48,38,33,91,67,53,30.31,30.16,20,10,0,0.00
2013-5-2,63,50,40,45,40,27,88,69,47,30.31,30.21,18,7,0,0.00
2013-5-3,54,46,38,41,34,21,90,66,38,30.22,30.15,26,13,0,0.00
2013-5-4,51,43,35,40,33,18,91,72,27,30.15,30.08,26,17,0,0.00
2013-5-5,54,44,36,41,30,13,91,61,22,30.10,29.99,34,19,0,0.00
2013-5-6,46,44,40,36,34,30,72,69,66,30.01,29.92,38,23,0,0.21
2013-5-7,48,45,42,42,36,33,89,72,66,29.97,29.88,26,8,0,0.87
2013-5-8,53,44,41,48,37,31,92,77,68,30.01,29.88,11,5,0,0.53
2013-5-9,62,51,45,51,42,35,90,71,53,30.07,29.96,19,9,0,0.02
2013-5-10,67,57,52,54,50,43,90,78,59,30.06,29.83,19,7,0,0.30
2013-5-11,56,50,43,52,42,33,91,75,66,29.83,29.76,29,12,0,0.36
2013-5-12,43,36,31,33,27,23,92,71,56,30.06,29.76,22,11,0,0.04
2013-5-13,40,32,28,30,26,21,91,79,53,30.22,30.02,19,8,0,0.00
2013-5-14,56,43,29,42,28,25,92,61,34,30.26,30.04,18,7,0,0.00
2013-5-15,75,62,53,53,49,43,90,65,35,30.03,29.81,29,16,0,0.00
2013-5-16,64,56,51,55,48,40,90,76,63,29.96,29.77,25,12,0,0.20
2013-5-17,64,57,50,56,50,39,91,78,60,30.11,29.95,11,3,0,0.30
2013-5-18,67,57,54,58,51,42,90,81,65,30.10,30.02,11,4,0,0.23
2013-5-19,56,55,53,46,44,42,69,68,65,30.09,30.01,14,5,0,0.09
2013-5-20,69,60,54,62,54,45,92,79,68,30.07,29.95,12,5,0,0.06
2013-5-21,76,65,58,62,57,51,92,76,45,29.96,29.85,13,6,0,0.02
2013-5-22,72,61,56,61,54,50,91,78,66,29.89,29.79,14,7,0,0.28
2013-5-23,68,56,49,56,49,40,92,76,52,29.84,29.75,26,9,0,0.10
2013-5-24,49,37,30,40,31,25,93,79,71,30.21,29.76,28,12,0,0.21
2013-5-25,49,37,25,32,26,12,93,67,36,30.34,30.21,24,10,0,0.00
2013-5-26,56,45,36,32,26,18,82,52,25,30.30,30.23,18,7,0,0.00
2013-5-27,61,51,43,51,37,23,90,60,44,30.27,30.16,19,4,0,0.00
2013-5-28,69,61,53,56,53,50,92,75,56,30.17,30.04,24,10,0,0.00
2013-5-29,75,64,57,56,54,51,91,72,44,30.13,30.06,19,9,0,0.00
2013-5-30,79,68,60,60,56,51,89,68,40,30.16,30.06,15,5,0,0.00
2013-5-31,78,66,58,60,54,44,91,65,33,30.08,29.98,18,6,0,0.00
2013-6-1,78,67,60,62,58,55,90,74,49,29.99,29.86,18,7,0,0.00
2013-6-2,66,60,53,61,54,44,91,83,69,29.86,29.78,19,9,0,0.86
2013-6-3,65,56,51,56,50,44,92,82,66,29.96,29.81,20,7,0,0.00
2013-6-4,70,56,46,50,45,39,91,68,38,30.09,29.96,14,5,0,0.01
2013-6-5,68,58,53,59,52,44,91,79,68,30.08,29.95,13,5,0,0.00
2013-6-6,58,55,53,48,45,43,71,69,68,29.98,29.80,15,5,0,0.40
2013-6-7,60,57,50,51,47,41,72,70,69,29.81,29.64,14,4,0,0.23
2013-6-8,69,58,47,54,48,39,91,71,56,30.09,29.78,13,6,0,0.02
2013-6-9,75,64,57,60,54,48,92,72,41,30.09,30.00,11,4,0,0.13
2013-6-10,65,58,54,56,51,47,92,78,68,30.00,29.77,16,8,0,0.76
2013-6-11,62,56,53,58,48,44,92,76,69,29.95,29.81,20,11,0,0.13
2013-6-12,72,63,58,65,56,48,91,77,67,29.95,29.82,18,8,0,0.00
2013-6-13,66,58,49,63,52,40,91,80,70,29.82,29.50,26,15,0,1.27
2013-6-14,59,51,46,53,45,38,93,80,71,30.06,29.70,16,7,0,0.00
2013-6-15,69,57,50,53,50,47,93,79,53,30.12,30.03,12,6,0,0.01
2013-6-16,64,59,55,61,54,48,92,85,70,30.04,29.93,18,9,0,0.13
2013-6-17,73,62,56,62,55,47,92,77,67,29.97,29.89,12,7,0,0.01
2013-6-18,62,58,54,59,54,48,93,88,80,29.91,29.78,8,3,0,0.29
2013-6-19,70,60,54,58,52,46,92,76,61,30.07,29.89,12,4,0,0.00
2013-6-20,75,62,55,60,54,47,92,75,52,30.16,30.07,10,3,0,0.00
2013-6-21,76,64,55,63,56,48,92,77,53,30.19,30.13,13,3,0,0.00
2013-6-22,72,64,58,61,56,49,92,76,55,30.19,30.08,8,3,0,0.00
2013-6-23,76,65,58,61,58,53,92,78,53,30.13,30.05,8,3,0,0.38
2013-6-24,74,66,60,64,60,53,92,82,66,30.11,30.01,10,4,0,0.36
2013-6-25,77,67,60,63,60,52,92,78,60,30.04,29.91,15,7,0,0.00
2013-6-26,72,65,61,63,60,53,92,84,70,29.91,29.81,24,9,0,0.00
2013-6-27,62,60,58,60,53,49,92,77,70,29.82,29.65,24,9,0,0.09
2013-6-28,72,62,54,63,54,50,92,75,60,29.67,29.50,28,13,0,0.13
2013-6-29,69,60,53,60,54,49,93,82,60,29.69,29.51,16,7,0,0.17
2013-6-30,77,65,58,61,57,53,92,77,49,29.76,29.67,8,3,0,0.01
2013-7-1,72,62,57,63,56,49,93,82,70,29.92,29.74,12,5,0,0.08
2013-7-2,66,61,59,62,56,51,93,83,72,30.09,29.91,13,6,0,0.13
2013-7-3,68,61,59,64,55,50,93,81,72,30.18,30.09,19,6,0,0.22
2013-7-4,73,64,59,66,58,51,93,80,71,30.22,30.12,16,6,0,0.11
2013-7-5,73,65,60,67,60,53,93,85,76,30.17,30.09,19,8,0,0.07
2013-7-6,76,66,60,65,62,58,93,85,66,30.15,30.04,13,6,0,0.00
2013-7-7,71,62,59,65,58,52,93,87,75,30.07,29.98,14,7,0,0.14
2013-7-8,69,60,54,62,55,47,94,85,73,30.14,30.05,15,9,0,0.08
2013-7-9,75,65,60,64,61,57,93,86,65,30.13,30.01,14,7,0,0.01
2013-7-10,75,65,59,68,62,54,93,89,74,30.02,29.85,19,8,0,0.05
2013-7-11,70,63,58,63,58,50,93,86,75,29.89,29.84,11,4,0,0.38
2013-7-12,64,57,53,58,52,45,94,83,74,30.03,29.87,14,8,0,0.00
2013-7-13,66,60,56,62,54,48,93,80,72,30.19,30.04,19,9,0,0.01
2013-7-14,74,64,59,63,59,51,93,83,66,30.29,30.18,20,8,0,0.00
2013-7-15,77,68,60,66,60,54,92,77,62,30.30,30.21,10,2,0,0.00
2013-7-16,79,69,64,68,64,60,93,84,65,30.25,30.18,11,4,0,0.09
2013-7-17,74,69,65,68,65,62,93,88,76,30.22,30.11,10,5,0,0.03
2013-7-18,80,70,65,70,65,61,93,85,67,30.14,30.02,10,4,0,0.01
2013-7-19,81,68,59,69,64,54,93,87,59,30.02,29.87,19,7,0,1.52
2013-7-20,78,66,62,67,59,53,93,80,64,29.92,29.84,15,9,0,0.59
2013-7-21,73,65,59,66,60,53,93,87,70,29.95,29.86,15,5,0,0.55
2013-7-22,75,65,61,66,59,54,93,82,69,29.91,29.73,11,5,0,0.24
2013-7-23,71,62,59,63,56,50,93,78,72,29.77,29.69,24,10,0,0.08
2013-7-24,70,61,53,61,55,50,93,80,68,29.86,29.70,16,6,0,0.04
2013-7-25,68,58,51,55,52,47,94,81,60,30.03,29.84,13,4,0,0.00
2013-7-26,73,61,51,58,53,49,92,76,51,30.06,29.99,10,3,0,0.00
2013-7-27,61,58,56,59,52,49,94,81,73,29.99,29.87,13,6,0,0.35
2013-7-28,66,59,52,57,53,47,93,80,70,29.98,29.84,19,8,0,0.09
2013-7-29,62,53,47,51,48,45,94,83,61,30.21,29.98,14,6,0,0.00
2013-7-30,70,59,51,56,53,49,93,81,57,30.22,30.13,9,4,0,0.00
2013-7-31,64,58,54,58,53,47,93,84,74,30.13,29.96,11,5,0,0.23
2013-8-1,64,59,57,60,53,49,94,80,73,29.96,29.87,16,8,0,0.47
2013-8-2,69,59,52,57,52,45,93,76,55,30.01,29.89,16,8,0,0.00
2013-8-3,66,58,55,59,53,47,93,84,73,30.00,29.93,15,9,0,0.06
2013-8-4,62,56,51,53,50,45,93,82,72,30.05,29.94,15,4,0,0.00
2013-8-5,68,57,48,54,50,44,94,78,55,30.09,29.98,12,3,0,0.01
2013-8-6,75,63,53,61,56,48,93,79,53,29.99,29.94,9,4,0,0.11
2013-8-7,73,63,60,66,58,52,93,83,73,29.98,29.92,12,6,0,0.11
2013-8-8,72,63,61,67,56,52,93,77,72,29.99,29.93,18,7,0,0.21
2013-8-9,69,64,62,65,57,53,94,78,72,29.98,29.90,24,12,0,0.07
2013-8-10,72,63,59,66,56,50,94,79,71,30.05,29.97,12,5,0,0.76
2013-8-11,71,64,60,65,59,52,94,86,74,30.06,29.98,9,4,0,0.23
2013-8-12,74,64,59,63,58,50,94,80,67,30.02,29.88,12,6,0,0.01
2013-8-13,66,60,55,61,54,47,94,83,73,29.88,29.75,23,9,0,0.11
2013-8-14,54,48,42,47,44,39,95,85,76,30.14,29.84,15,5,0,0.01
2013-8-15,65,52,43,50,46,40,94,81,56,30.19,30.10,9,4,0,0.00
2013-8-16,66,56,48,54,50,46,94,79,60,30.14,30.09,8,3,0,0.00
2013-8-17,62,54,48,55,49,44,94,86,72,30.19,30.13,22,9,0,0.00
2013-8-18,62,56,52,60,50,46,94,80,73,30.20,30.13,12,5,0,0.18
2013-8-19,70,60,56,61,54,48,94,79,71,30.15,30.05,11,6,0,0.05
2013-8-20,74,64,56,62,57,52,94,81,55,30.15,30.07,9,4,0,0.01
2013-8-21,70,63,57,65,60,54,94,90,79,30.13,30.05,12,5,0,0.06
2013-8-22,70,62,56,63,57,51,93,84,74,30.09,29.99,16,9,0,0.09
2013-8-23,64,58,53,60,55,49,94,88,75,30.10,29.95,18,7,0,0.38
2013-8-24,68,58,52,55,52,49,93,79,59,30.29,30.10,11,5,0,0.00
2013-8-25,70,59,52,57,53,49,93,81,59,30.35,30.25,8,3,0,0.00
2013-8-26,71,61,54,58,54,50,93,80,60,30.28,30.07,14,7,0,0.00
2013-8-27,66,62,60,63,57,52,94,82,72,30.08,29.95,21,10,0,0.00
2013-8-28,68,64,62,65,56,53,94,75,72,29.97,29.80,20,11,0,1.34
2013-8-29,71,64,61,65,58,53,94,81,72,29.98,29.82,19,5,0,0.00
2013-8-30,76,65,58,65,59,51,94,80,68,29.99,29.85,11,5,0,0.01
2013-8-31,74,65,60,65,59,55,93,82,64,29.87,29.77,19,7,0,0.00
2013-9-1,72,64,60,64,60,54,94,88,73,29.82,29.75,11,5,0,0.04
2013-9-2,73,64,60,65,58,51,94,80,66,29.82,29.75,15,9,0,0.00
2013-9-3,67,60,52,58,53,49,94,79,66,29.96,29.75,16,8,0,0.01
2013-9-4,71,58,49,54,48,35,94,74,28,30.09,29.95,10,6,0,0.01
2013-9-5,65,57,52,57,50,24,94,80,28,30.12,30.05,18,8,0,0.00
2013-9-6,71,58,50,54,47,33,94,71,26,30.16,30.08,9,3,0,0.00
2013-9-7,69,59,52,52,48,36,93,70,32,30.07,29.95,13,7,0,0.00
2013-9-8,70,61,55,62,57,50,93,87,73,30.01,29.92,14,6,0,0.00
2013-9-9,71,63,58,63,58,51,93,83,76,30.09,30.01,10,4,0,0.01
2013-9-10,77,66,61,66,60,52,93,80,64,30.17,30.08,12,6,0,0.00
2013-9-11,78,66,62,66,62,59,94,87,63,30.14,30.00,12,6,0,0.00
2013-9-12,69,62,56,66,55,48,94,77,72,30.01,29.76,18,9,0,0.27
2013-9-13,57,51,43,50,45,41,94,79,60,29.93,29.71,19,8,0,0.04
2013-9-14,58,46,37,46,40,34,95,82,54,30.16,29.93,10,4,0,0.00
2013-9-15,64,53,45,54,48,42,94,84,65,30.19,30.08,20,9,0,0.00
2013-9-16,54,50,44,52,46,41,95,85,76,30.23,30.03,22,8,0,0.03
2013-9-17,58,49,43,49,44,39,94,83,66,30.35,30.23,11,5,0,0.01
2013-9-18,63,52,43,56,48,38,94,85,71,30.26,30.13,10,4,0,0.00
2013-9-19,67,57,52,56,51,45,94,80,65,30.15,30.02,10,5,0,0.00
2013-9-20,69,60,57,63,55,50,94,85,74,30.03,29.87,8,3,0,0.50
2013-9-21,57,54,47,50,47,40,77,76,74,29.87,29.64,18,7,0,0.67
2013-9-22,56,48,43,48,43,38,95,83,74,29.94,29.73,13,5,0,0.01
2013-9-23,58,48,39,47,42,37,95,82,57,30.06,29.94,12,5,0,0.00
2013-9-24,68,56,45,52,49,43,94,78,50,30.03,29.92,15,7,0,0.00
2013-9-25,62,54,48,53,50,45,94,86,69,29.94,29.83,6,2,0,0.06
2013-9-26,62,54,48,53,48,45,94,80,59,30.04,29.88,11,5,0,0.06
2013-9-27,65,55,49,51,46,41,94,73,53,30.14,30.03,9,2,0,0.00
2013-9-28,55,49,44,50,46,40,94,88,75,30.21,30.13,9,4,0,0.00
2013-9-29,62,50,41,51,46,39,94,85,68,30.17,30.05,10,2,0,0.01
2013-9-30,63,53,48,53,50,46,94,90,68,30.05,29.99,8,3,0,0.00
2013-10-1,62,55,50,54,51,46,94,88,72,30.10,30.02,12,7,0,0.00
2013-10-2,66,58,52,56,52,46,93,81,66,30.12,30.06,19,6,0,0.01
2013-10-3,71,61,56,57,55,52,94,81,60,30.10,30.01,7,2,0,0.00
2013-10-4,72,61,57,60,57,52,94,84,65,30.09,30.02,11,6,0,0.00
2013-10-5,72,62,57,60,57,53,94,82,62,30.08,29.99,12,6,0,0.01
2013-10-6,70,62,57,60,57,55,94,85,63,29.98,29.80,18,7,0,0.00
2013-10-7,57,48,39,56,44,37,95,87,78,30.06,29.68,20,9,0,1.00
2013-10-8,54,44,36,40,37,32,95,78,46,30.28,30.05,20,8,0,0.00
2013-10-9,53,45,40,43,31,23,94,61,36,30.27,30.19,23,12,0,0.01
2013-10-10,59,52,47,55,47,42,94,81,75,30.18,29.98,16,7,0,0.05
2013-10-11,53,51,50,51,44,42,94,79,75,30.00,29.93,12,5,0,0.01
2013-10-12,58,53,50,57,47,43,94,80,75,30.11,29.97,14,6,0,0.01
2013-10-13,56,53,50,54,47,43,94,81,75,30.23,30.10,10,5,0,0.01
2013-10-14,60,54,50,56,48,43,94,82,75,30.25,30.15,9,2,0,1.04
2013-10-15,59,53,49,50,44,28,95,72,38,30.17,30.03,9,5,0,0.00
2013-10-16,60,54,50,53,44,24,94,72,36,30.03,29.89,13,6,0,0.00
2013-10-17,55,51,38,47,43,33,81,76,75,29.91,29.71,21,9,0,0.20
2013-10-18,53,42,34,37,34,29,95,74,49,30.02,29.82,23,8,0,0.00
2013-10-19,48,43,32,45,39,28,95,85,75,30.00,29.78,21,9,0,0.08
2013-10-20,47,36,28,36,28,26,95,75,48,30.15,29.88,18,8,0,0.00
2013-10-21,57,46,39,38,34,26,81,64,42,30.14,29.92,12,7,0,0.00
2013-10-22,46,40,34,39,33,18,94,79,48,29.92,29.80,24,10,0,0.01
2013-10-23,35,30,25,31,25,9,94,81,35,29.95,29.70,20,8,0,0.00
2013-10-24,26,24,22,24,23,21,95,94,94,30.21,29.94,18,8,0,0.00
2013-10-25,26,23,22,24,22,21,95,95,93,30.42,30.21,14,6,0,0.01
2013-10-26,42,29,21,31,23,19,95,80,42,30.38,30.08,29,10,0,0.01
2013-10-27,45,36,31,34,31,27,94,82,64,30.16,30.03,26,10,0,0.01
2013-10-28,53,43,38,42,38,34,94,83,57,30.27,30.15,20,8,0,0.00
2013-10-29,56,46,40,45,39,35,94,77,53,30.33,30.25,13,5,0,0.00
2013-10-30,52,48,45,45,42,39,94,80,76,30.25,30.14,15,7,0,0.08
2013-10-31,55,52,49,52,48,44,94,87,75,30.16,29.66,22,10,0,0.08
2013-11-1,57,50,42,50,43,39,95,78,59,29.68,29.53,28,12,0,0.56
2013-11-2,45,38,32,39,34,27,94,86,65,29.93,29.64,21,11,0,0.00
2013-11-3,34,31,27,32,27,21,95,87,76,30.44,29.92,18,6,0,0.06
2013-11-4,43,33,28,29,22,12,91,66,48,30.56,30.43,9,4,0,0.00
2013-11-5,48,40,33,38,28,20,94,64,41,30.55,30.43,20,7,0,0.01
2013-11-6,55,46,42,49,41,35,94,83,76,30.43,30.04,21,10,0,0.00
2013-11-7,48,36,24,46,32,23,95,87,77,30.07,29.89,28,13,0,0.17
2013-11-8,31,25,23,25,22,21,95,88,77,30.37,30.07,25,11,0,0.00
2013-11-9,48,37,26,24,17,6,85,46,26,30.36,30.11,21,11,0,0.00
2013-11-10,40,33,25,32,27,22,92,78,57,30.27,30.04,30,16,0,0.00
2013-11-11,52,40,24,23,4,-16,93,29,10,30.35,30.05,25,10,0,0.00
2013-11-12,42,22,14,31,18,13,94,88,34,30.43,29.97,25,8,0,0.00
2013-11-13,26,16,11,19,10,-11,94,80,19,30.60,30.42,22,10,0,0.00
2013-11-14,46,35,24,16,5,-12,37,28,17,30.55,30.29,23,12,0,0.00
2013-11-15,49,40,35,36,17,2,93,44,21,30.29,30.18,21,8,0,0.05
2013-11-16,51,44,38,47,40,34,95,88,78,30.25,30.16,15,6,0,0.01
2013-11-17,51,47,42,48,41,36,95,79,75,30.16,29.71,25,8,0,0.32
2013-11-18,46,38,27,40,30,23,95,75,47,29.93,29.75,31,18,0,0.03
2013-11-19,27,22,20,24,20,17,95,92,83,30.40,29.92,28,8,0,0.00
2013-11-20,34,26,21,24,18,11,94,76,49,30.51,30.40,19,10,0,0.00
2013-11-21,43,36,25,41,32,24,94,88,77,30.55,30.39,16,9,0,0.02
2013-11-22,48,46,37,46,39,31,94,79,76,30.39,30.04,21,12,0,0.21
2013-11-23,36,24,8,30,22,6,95,90,79,30.20,30.04,11,1,0,0.03
2013-11-24,10,5,2,7,2,-1,92,89,83,30.62,30.20,0,0,0,0.00
2013-11-25,35,24,5,23,2,-12,94,42,18,30.64,30.33,19,7,0,0.00
2013-11-26,40,35,25,34,29,24,94,81,78,30.32,29.66,20,9,0,1.41
2013-11-27,34,18,8,29,16,6,95,93,79,30.08,29.58,14,0,0,0.00
2013-11-28,23,15,8,22,13,6,95,93,86,30.54,30.10,0,0,0,0.00
2013-11-29,29,21,14,24,18,12,94,88,75,30.69,30.52,8,1,0,0.00
2013-11-30,33,28,20,25,19,10,91,70,50,30.66,30.34,14,7,0,0.00
2013-12-1,38,33,29,32,24,10,94,74,38,30.33,30.01,22,12,0,0.00
2013-12-2,39,34,32,33,32,30,94,89,78,30.00,29.84,11,5,0,0.00
2013-12-3,43,37,33,38,34,30,95,89,78,29.96,29.84,11,4,0,0.00
2013-12-4,52,44,38,46,40,33,94,84,76,30.03,29.95,15,6,0,0.01
2013-12-5,58,51,45,52,48,38,95,88,76,30.01,29.89,20,11,0,0.05
2013-12-6,53,44,31,45,38,26,85,77,75,30.01,29.83,23,8,0,1.31
2013-12-7,35,22,17,29,21,16,95,94,79,30.51,30.00,6,0,0,0.00
2013-12-8,36,24,18,30,22,17,95,92,80,30.50,30.24,0,0,0,0.00
2013-12-9,43,35,24,36,30,19,95,82,72,30.23,30.01,27,12,0,0.33
2013-12-10,29,19,12,23,17,10,95,91,58,30.27,29.90,24,11,0,0.00
2013-12-11,27,17,10,17,12,8,93,82,57,30.47,30.27,25,14,0,0.00
2013-12-12,16,10,5,14,5,0,93,81,57,30.42,30.33,29,13,0,0.00
2013-12-13,28,19,11,14,8,4,76,63,51,30.41,30.36,23,12,0,0.00
2013-12-14,36,29,24,30,25,10,94,87,51,30.36,29.75,18,9,0,0.12
2013-12-15,37,22,17,30,20,16,95,91,77,29.98,29.68,22,11,0,0.03
2013-12-16,28,21,16,26,20,15,95,94,91,30.19,29.98,10,4,0,0.00
2013-12-17,30,27,18,27,25,17,95,91,87,30.14,29.91,8,4,0,0.00
2013-12-18,25,18,13,24,17,12,95,95,94,30.32,29.98,11,5,0,0.00
2013-12-19,45,38,24,32,25,20,95,63,38,30.35,30.15,34,15,0,0.05
2013-12-20,48,45,42,46,34,20,94,68,37,30.14,29.98,26,14,0,0.00
2013-12-21,55,51,47,51,48,45,94,88,77,30.01,29.83,27,12,0,0.00
2013-12-22,55,50,47,53,46,42,95,89,77,29.96,29.79,25,12,0,0.53
2013-12-23,49,33,18,42,29,16,95,85,76,30.15,29.90,22,10,0,0.35
2013-12-24,18,12,3,17,10,1,95,93,90,30.48,30.15,11,5,0,0.00
2013-12-25,27,18,4,10,5,1,92,60,40,30.58,30.34,14,5,0,0.00
2013-12-26,25,22,19,20,16,7,92,76,47,30.40,30.24,26,13,0,0.00
2013-12-27,35,26,19,18,13,4,79,58,41,30.51,30.39,21,11,0,0.00
2013-12-28,44,36,28,20,13,-3,69,43,14,30.40,30.17,23,12,0,0.00
2013-12-29,40,34,29,37,30,23,94,86,53,30.17,29.61,20,10,0,1.19
2013-12-30,29,22,18,27,21,16,95,94,90,30.13,29.85,0,0,0,0.00
2013-12-31,18,16,14,17,15,12,95,94,94,30.41,30.11,0,0,0,0.00
2014-1-1,35,27,16,31,21,14,95,79,53,30.48,30.11,13,2,0,0.01
2014-1-2,32,27,6,29,19,4,95,74,36,30.11,29.58,20,10,0,0.00